This is the latest recevied weather packets stored in our database for station/object KN6ZYR. If no packets are shown the sender has not sent any weather packets the latest 10 day(s).
| Time | Temp. | Humidity | Pressure | Rain* | Wind** | Luminosity | Snow |
|---|---|---|---|---|---|---|---|
| 1777121672 | 6.11° C | 52% | 1012.2 hPa | 0 mm | - | 0 W/m² | - |
| 1777121369 | 6.11° C | 51% | 1012.4 hPa | 0 mm | - | 0 W/m² | - |
| 1777121065 | 6.67° C | 51% | 1012.2 hPa | 0 mm | - | 0 W/m² | - |
| 1777120761 | 6.67° C | 50% | 1012.2 hPa | 0 mm | - | 0 W/m² | - |
| 1777120457 | 6.67° C | 49% | 1012.2 hPa | 0 mm | - | 0 W/m² | - |
| 1777120152 | 6.67° C | 48% | 1012.1 hPa | 0 mm | - | 0 W/m² | - |
| 1777119849 | 7.22° C | 47% | 1012 hPa | 0 mm | - | 0 W/m² | - |
| 1777119545 | 7.22° C | 45% | 1011.8 hPa | 0 mm | - | 0 W/m² | - |
| 1777119241 | 7.22° C | 46% | 1011.8 hPa | 0 mm | - | 0 W/m² | - |
| 1777118940 | 6.67° C | 47% | 1012 hPa | 0 mm | - | 0 W/m² | - |
| 1777118636 | 6.67° C | 47% | 1012.3 hPa | 0 mm | - | 0 W/m² | - |
| 1777118336 | 6.67° C | 47% | 1012.4 hPa | 0 mm | - | 0 W/m² | - |
| 1777118034 | 6.67° C | 46% | 1012.4 hPa | 0 mm | - | 0 W/m² | - |
| 1777117730 | 6.67° C | 46% | 1012.3 hPa | 0 mm | - | 0 W/m² | - |
| 1777117428 | 6.67° C | 46% | 1012.4 hPa | 0 mm | - | 0 W/m² | - |
| 1777117123 | 6.67° C | 47% | 1012.3 hPa | 0 mm | - | 0 W/m² | - |
| 1777116819 | 6.67° C | 45% | 1012.4 hPa | 0 mm | - | 0 W/m² | - |
| 1777116515 | 6.67° C | 46% | 1012.5 hPa | 0 mm | - | 0 W/m² | - |
| 1777116212 | 6.67° C | 44% | 1012.3 hPa | 0 mm | - | 0 W/m² | - |
| 1777115907 | 6.67° C | 44% | 1012.6 hPa | 0 mm | - | 0 W/m² | - |
| 1777115603 | 7.22° C | 45% | 1012.5 hPa | 0 mm | - | 0 W/m² | - |
| 1777115298 | 7.22° C | 42% | 1012.8 hPa | 0 mm | - | 0 W/m² | - |
| 1777114995 | 7.22° C | 43% | 1012.6 hPa | 0 mm | - | 0 W/m² | - |
| 1777114693 | 7.22° C | 46% | 1012.8 hPa | 0 mm | - | 0 W/m² | - |
| 1777114387 | 7.22° C | 45% | 1012.8 hPa | 0 mm | - | 0 W/m² | - |
* Rain latest hour (hover to see other rain measurements)
** Current wind speed in m/s (hover to see current wind gust speed)